Location: Althorst
(53.6379°N, 10.7715°E)
Time: 20:32:44
(UTC+00:00)

Cosmos 1346 Rocket - Pass Details

Date: 10 December 2019
Orbit: 524 x 555 km, 81.2° (Epoch: 26 January)

Event Time Altitude Azimuth Distance (km) Brightness Sun altitude
Rises 15:37:54 0° 346° (NNW) 2,702 6.2 -5.8°
Reaches altitude 10° 15:40:04 10° 346° (NNW) 1,811 5.3 -6.1°
Maximum altitude 15:44:03 85° 260° (W) 552 2.9 -6.6°
Drops below altitude 10° 15:48:03 10° 170° (S) 1,814 5.7 -7.1°
Sets 15:50:13 0° 170° (S) 2,707 6.6 -7.4°
